Overview Statistics Trail Chart Weather Telemetry Raw packets
 

This is the latest recevied weather packets stored in our database for station/object K4KMJ. If no packets are shown the sender has not sent any weather packets the latest 10 day(s).

<< 21 22 23 24 25 26 27 >>
Time Temp. Humidity Pressure Rain* Wind** Luminosity Snow
1788522142 24.44° C 99% 1017.2 hPa 0 mm - 24 W/m² -
1788521822 24.44° C 99% 1017.2 hPa 0 mm - 21 W/m² -
1788521521 24.44° C 99% 1017.1 hPa 0 mm - 18 W/m² -
1788521216 23.89° C 99% 1016.8 hPa 0 mm - 11 W/m² -
1788520912 23.89° C 99% 1016.8 hPa 0 mm - 7 W/m² -
1788520608 23.89° C 99% 1016.9 hPa 0 mm - 5 W/m² -
1788520303 23.89° C 99% 1016.8 hPa 0 mm - 3 W/m² -
1788519999 23.89° C 99% 1016.6 hPa 0 mm - 2 W/m² -
1788519697 23.89° C 99% 1016.6 hPa 0 mm - 1 W/m² -
1788519407 23.33° C 99% 1016.4 hPa 0 mm - 0 W/m² -
1788519087 23.89° C 99% 1016.7 hPa 0 mm - 0 W/m² -
1788518783 23.89° C 99% 1016.5 hPa 0 mm - 0 W/m² -
1788518478 23.89° C 99% 1016.6 hPa 0 mm - 0 W/m² -
1788518174 23.89° C 99% 1016.3 hPa 0 mm - 0 W/m² -
1788517870 23.89° C 99% 1016.4 hPa 0 mm - 0 W/m² -
1788517566 23.89° C 99% 1016.3 hPa 0 mm - 0 W/m² -
1788517261 23.89° C 99% 1016.5 hPa 0 mm - 0 W/m² -
1788516958 23.89° C 99% 1016.3 hPa 0 mm - 0 W/m² -
1788516653 23.89° C 99% 1016.2 hPa 0 mm - 0 W/m² -
1788516349 23.89° C 99% 1016.4 hPa 0 mm - 0 W/m² -
1788516043 23.89° C 99% 1016.2 hPa 0 mm - 0 W/m² -
1788515738 23.89° C 99% 1016.3 hPa 0 mm - 0 W/m² -
1788515433 23.89° C 99% 1016.4 hPa 0 mm - 0 W/m² -
1788515128 23.89° C 99% 1016.2 hPa 0 mm - 0 W/m² -
1788514840 23.89° C 99% 1016.3 hPa 0 mm - 0 W/m² -

* Rain latest hour (hover to see other rain measurements)
** Current wind speed in m/s (hover to see current wind gust speed)